TimeEDT,TemperatureF,Dew PointF,Humidity,Sea Level PressureIn,VisibilityMPH,Wind Direction,Wind SpeedMPH,Gust SpeedMPH,PrecipitationIn,Events,Conditions,WindDirDegrees,DateUTC
12:53 AM,27.0,19.0,72,29.77,10.0,West,23.0,28.8,N/A,,Overcast,260,2013-03-19 04:53:00
1:53 AM,25.0,16.0,69,29.78,10.0,WSW,25.3,36.8,N/A,,Overcast,250,2013-03-19 05:53:00
2:53 AM,24.1,12.9,62,29.80,10.0,West,26.5,34.5,N/A,,Overcast,260,2013-03-19 06:53:00
3:53 AM,23.0,12.9,65,29.81,10.0,WSW,20.7,32.2,N/A,,Overcast,250,2013-03-19 07:53:00
4:45 AM,21.2,14.0,74,29.77,9.0,WSW,19.6,26.5,0.00,Snow,Light Snow,250,2013-03-19 08:45:00
4:53 AM,21.9,14.0,72,29.80,8.0,WSW,23.0,28.8,0.00,Snow,Light Snow,250,2013-03-19 08:53:00
5:53 AM,21.9,12.9,68,29.83,10.0,WSW,20.7,28.8,0.00,,Overcast,250,2013-03-19 09:53:00
6:53 AM,21.9,12.0,66,29.83,10.0,WSW,24.2,38.0,0.00,,Overcast,240,2013-03-19 10:53:00
7:53 AM,21.9,12.9,68,29.84,10.0,WSW,21.9,31.1,N/A,,Overcast,240,2013-03-19 11:53:00
8:30 AM,21.2,12.2,68,29.81,7.0,WSW,19.6,31.1,0.00,Snow,Light Snow,250,2013-03-19 12:30:00
8:38 AM,21.2,12.2,68,29.81,9.0,WSW,26.5,32.2,0.00,Snow,Light Snow,250,2013-03-19 12:38:00
8:53 AM,21.0,12.0,68,29.84,9.0,WSW,23.0,34.5,0.00,Snow,Light Snow,250,2013-03-19 12:53:00
9:53 AM,21.0,12.9,71,29.85,6.0,West,20.7,29.9,0.00,Snow,Light Snow,260,2013-03-19 13:53:00
10:53 AM,23.0,12.0,63,29.88,10.0,WSW,25.3,34.5,0.00,,Overcast,250,2013-03-19 14:53:00
11:53 AM,25.0,12.0,58,29.89,10.0,West,24.2,34.5,0.00,,Overcast,260,2013-03-19 15:53:00
12:21 PM,26.6,12.2,55,29.87,10.0,WSW,21.9,33.4,0.00,,Overcast,250,2013-03-19 16:21:00
12:53 PM,28.0,14.0,56,29.91,10.0,WSW,24.2,33.4,0.00,,Overcast,250,2013-03-19 16:53:00
1:53 PM,28.9,14.0,54,29.93,10.0,WSW,25.3,35.7,0.00,,Overcast,250,2013-03-19 17:53:00
2:53 PM,30.9,14.0,50,29.94,10.0,West,25.3,33.4,N/A,,Overcast,260,2013-03-19 18:53:00
3:53 PM,34.0,14.0,44,29.94,10.0,WSW,26.5,34.5,N/A,,Mostly Cloudy,250,2013-03-19 19:53:00
4:53 PM,34.0,12.9,42,29.96,10.0,West,23.0,40.3,N/A,,Clear,270,2013-03-19 20:53:00
5:53 PM,35.1,14.0,42,29.97,10.0,West,23.0,28.8,N/A,,Clear,260,2013-03-19 21:53:00
6:53 PM,34.0,12.9,42,29.99,10.0,West,18.4,26.5,N/A,,Clear,260,2013-03-19 22:53:00
7:53 PM,32.0,14.0,48,30.00,10.0,West,17.3,24.2,N/A,,Clear,270,2013-03-19 23:53:00
8:53 PM,30.9,16.0,54,30.02,10.0,WSW,20.7,24.2,N/A,,Clear,250,2013-03-20 00:53:00
9:53 PM,30.9,16.0,54,30.03,10.0,West,19.6,25.3,N/A,,Clear,260,2013-03-20 01:53:00
10:53 PM,28.9,17.1,61,30.04,10.0,West,16.1,25.3,N/A,,Scattered Clouds,260,2013-03-20 02:53:00
11:53 PM,28.0,16.0,61,30.05,10.0,West,11.5,-,N/A,,Clear,260,2013-03-20 03:53:00